Wetbulb
72.41 75.64 77.58 77.27 77.28 77.34 77.24 77.72 77.97 78.68 78.81 78.31 78.36 77.81 77.33 77.13 76.78 76.68 76.58 76.68 76.82 76.49 76.14 76.01 75.76 75.59 75.81 75.99 76.32 76.51 76.29 76.34 76.70 77.00 77.42 77.14 76.73 77.90 77.87 77.42 76.83 75.68 76.67
73.80 75.98 77.52 77.81 77.37 77.23 77.12 77.41 77.40 78.12 77.97 78.21 78.43 77.79 77.61 77.12 76.85 76.88 76.82 76.71 76.55 76.33 76.47 76.27 76.68 76.32 76.19 75.55 75.36 75.96 76.15 76.07 76.32 76.33 76.74 77.44 76.68 77.33 77.55 77.46 76.64 76.90 77.08
73.84 75.88 75.82 76.34 77.77 77.06 77.29 77.08 77.00 77.17 77.12 77.25 77.61 77.26 77.20 77.24 77.08 76.95 76.79 76.96 76.92 76.41 76.40 76.53 76.56 76.10 76.03 76.54 75.44 75.44 75.84 75.55 76.90 77.25 76.60 77.82 76.83 77.11 76.63 77.27 77.01 76.61 77.04
74.09 75.55 75.82 77.46 77.83 77.37 77.02 77.07 76.80 76.78 76.73 76.89 76.97 77.12 77.14 77.09 77.15 77.23 76.76 76.68 76.40 76.38 76.40 76.39 76.03 75.90 76.02 75.52 75.63 75.61 75.69 76.09 75.75 75.91 76.33 76.49 76.26 76.77 76.44 76.32 77.35 76.89 76.81
74.44 75.51 75.90 78.08 77.67 77.08 76.90 77.06 76.94 76.84 76.70 76.70 76.48 76.70 76.70 76.85 76.78 76.77 76.96 77.06 76.49 75.83 75.34 74.96 74.40 73.90 73.65 73.82 74.34 74.66 75.04 75.07 76.09 74.76 73.65 75.00 75.94 75.59 76.34 76.68 76.74 77.15 77.05
74.15 75.13 77.26 77.39 77.08 77.00 76.87 77.03 77.07 77.08 77.27 77.16 76.82 76.63 76.52 76.60 76.60 76.83 76.98 76.69 75.93 75.23 74.71 74.29 73.84 73.80 74.06 74.09 73.96 73.63 74.04 74.21 74.70 76.42 76.79 75.83 74.55 74.57 76.11 76.58 76.12 76.51 77.13
73.75 74.71 77.47 77.71 77.36 76.56 76.44 77.09 77.42 77.19 77.47 77.43 76.77 76.70 77.01 77.01 76.86 76.56 76.13 75.78 75.34 75.07 74.65 74.62 74.62 74.86 75.09 75.32 75.75 75.82 75.70 74.98 74.86 74.94 75.15 75.42 73.96 72.89 75.64 76.90 76.98 76.90 77.30
73.05 75.17 76.55 77.38 77.30 76.52 76.55 76.86 77.56 77.19 77.03 77.16 77.00 76.72 77.28 76.71 76.26 75.74 75.04 74.82 75.12 75.51 75.87 75.87 76.01 75.95 76.34 76.55 76.98 76.94 76.68 76.47 74.97 74.94 75.07 75.27 75.51 72.94 74.08 75.80 77.09 77.09 76.58
73.58 75.16 76.20 76.40 76.76 76.75 76.81 76.88 77.08 77.19 76.74 76.37 76.18 76.78 76.60 76.20 75.28 75.07 75.39 75.56 75.87 76.17 76.58 76.91 77.20 77.45 77.66 77.63 77.80 77.79 77.67 77.35 76.39 75.70 74.94 75.44 75.37 74.60 75.32 76.06 76.08 76.60 76.53
73.49 74.62 76.12 76.30 76.08 75.70 76.43 77.12 77.17 76.51 76.67 76.81 76.57 76.53 75.91 75.53 75.59 75.87 76.92 77.02 77.13 77.01 77.64 77.82 77.93 77.80 77.43 78.07 78.19 78.40 78.04 77.77 77.23 76.77 76.41 75.85 76.19 75.89 76.27 76.48 76.73 76.68 76.45
72.55 74.19 75.74 75.90 76.40 76.11 76.16 76.16 77.11 76.75 76.70 76.43 76.29 76.14 75.98 75.49 75.66 75.95 76.47 76.47 77.27 77.67 78.12 78.42 78.65 78.85 78.46 78.36 78.28 78.34 78.21 77.60 77.32 77.12 76.99 77.22 76.40 76.80 76.97 78.01 77.51 76.84 76.93
70.63 72.77 74.62 75.14 75.43 75.69 75.60 76.86 77.25 76.43 75.79 75.41 75.60 76.27 76.06 76.42 76.78 76.41 76.52 77.03 77.66 77.83 77.82 77.93 78.70 78.40 78.13 77.26 77.50 78.05 77.56 78.08 77.43 77.10 77.00 77.54 77.15 77.06 77.52 78.12 77.70 77.58 76.90
70.33 72.18 74.02 74.77 75.70 74.96 75.12 76.41 75.75 75.37 74.94 76.10 77.46 77.48 76.64 76.10 76.07 76.13 76.11 76.08 77.00 77.12 77.71 78.29 78.72 78.86 77.79 77.76 77.69 77.49 77.16 77.28 77.16 77.31 77.73 77.62 77.58 77.58 77.47 77.78 77.47 77.64 77.40
69.74 71.11 72.96 75.02 75.51 75.30 75.31 76.07 75.81 75.13 75.49 75.52 75.82 76.81 76.20 75.12 75.13 75.09 74.97 76.10 76.82 78.25 78.26 78.52 78.94 78.27 77.60 76.77 77.56 77.56 77.16 77.03 76.57 76.98 77.52 77.47 78.01 77.97 77.96 78.12 78.20 77.83 77.87
69.98 71.00 72.27 74.37 75.46 75.39 75.65 75.36 76.09 75.87 75.61 75.34 75.51 75.63 75.52 74.55 74.41 74.75 74.98 75.58 76.98 77.80 78.26 80.21 77.37 78.82 77.97 76.79 76.14 76.20 76.30 76.86 76.97 77.60 77.67 77.62 77.52 78.24 78.11 78.49 78.24 77.83 77.45
71.19 71.31 72.23 73.52 75.03 75.53 75.19 75.45 75.09 75.61 75.61 75.40 75.00 74.85 75.73 74.90 74.64 74.45 74.52 75.22 76.27 77.03 77.85 78.47 78.37 78.46 78.01 77.46 76.36 76.89 77.13 77.73 77.88 78.14 78.33 79.02 77.79 77.96 78.36 78.94 78.05 77.77 77.30
71.27 71.76 72.12 73.16 74.20 74.73 75.09 74.91 74.65 74.87 74.38 74.22 74.31 74.99 75.38 75.03 74.97 75.07 75.05 75.62 76.33 77.21 78.76 78.92 78.94 78.67 77.65 77.93 77.03 77.38 77.00 76.85 77.06 78.05 78.02 77.96 78.54 78.57 79.02 78.81 78.29 78.24 77.42
71.84 72.16 73.02 73.26 73.43 74.15 74.29 74.35 73.68 73.69 74.04 73.65 73.90 74.47 74.86 75.26 75.64 75.72 75.33 75.54 76.80 77.47 78.32 77.89 77.63 77.52 77.36 77.06 76.93 76.31 75.97 76.24 76.25 76.31 77.41 77.19 77.83 78.63 77.98 78.23 77.87 77.79 77.09
72.90 73.21 73.53 74.32 74.20 74.00 74.10 73.72 73.68 73.57 73.34 73.24 74.47 75.10 75.82 75.98 76.18 76.27 75.85 76.42 77.74 76.97 77.35 77.64 77.47 76.95 76.02 76.11 75.18 75.47 75.52 75.26 76.13 76.20 76.87 77.74 77.01 77.03 77.60 77.74 77.60 77.45 76.81
73.83 74.02 74.19 74.37 74.71 74.70 73.98 73.52 72.57 72.20 72.34 72.95 73.58 74.81 75.92 75.91 76.29 76.56 76.46 77.10 77.30 76.65 77.38 77.31 76.78 76.55 76.07 75.63 74.69 75.18 76.29 75.93 75.67 75.30 75.85 76.71 77.56 77.11 77.19 77.88 77.00 76.73 77.57
73.61 73.60 74.01 73.63 74.98 73.82 72.75 71.42 70.91 70.30 71.37 72.29 73.77 75.26 75.80 76.09 75.97 76.84 76.38 76.81 77.61 77.00 78.33 77.78 76.79 75.72 75.14 76.09 74.68 74.48 74.97 75.71 75.32 74.66 74.78 75.57 76.25 76.46 77.20 77.53 76.87 76.35 76.40
72.95 73.64 74.01 73.88 74.34 73.68 73.07 72.94 72.18 72.12 72.42 73.23 74.66 75.09 76.04 76.14 76.12 76.24 76.72 77.04 77.42 76.78 77.95 77.32 76.43 76.07 74.73 75.26 73.26 73.21 69.99 71.89 72.68 73.28 73.61 73.72 75.35 75.64 75.01 76.69 77.49 77.62 76.99
72.15 73.28 73.85 74.21 74.43 74.37 74.65 73.19 72.88 73.84 73.92 73.58 73.88 74.19 75.29 75.97 75.95 75.99 76.46 77.12 77.70 77.85 76.52 77.71 76.74 75.59 73.99 75.29 75.58 72.53 69.79 68.60 70.85 72.38 72.24 73.06 73.75 74.31 74.96 75.15 76.26 77.95 78.21
71.07 72.44 73.67 73.96 74.29 73.96 75.19 73.96 74.12 72.26 71.80 73.64 74.22 74.97 75.21 76.08 75.76 75.70 76.51 77.39 78.04 77.53 77.60 77.47 77.04 75.73 75.26 73.18 74.57 74.40 74.34 73.09 69.38 69.32 72.06 72.17 72.86 72.99 74.27 74.18 74.50 75.38 77.43
71.75 71.03 72.08 73.69 73.96 74.37 74.17 74.21 73.85 73.82 74.06 74.15 74.48 75.63 75.82 75.82 75.66 75.31 76.03 77.38 77.70 77.46 77.88 77.97 77.25 75.99 74.86 74.13 73.77 74.01 72.83 73.06 72.98 70.16 68.65 71.52 72.27 72.02 72.20 72.72 73.01 74.00 75.51
72.21 72.04 71.30 72.94 73.42 74.15 74.36 74.27 74.76 74.23 74.71 73.52 74.27 73.56 74.12 74.70 74.57 75.33 76.23 77.33 77.97 77.88 77.54 77.57 77.81 77.28 76.31 75.26 74.40 74.48 73.21 71.91 71.71 70.44 69.33 70.86 71.14 73.14 74.32 73.35 73.19 73.39 74.10
MSLP
1014.44 1014.85 1015.39 1015.77 1015.99 1016.17 1016.38 1016.60 1016.73 1016.94 1017.19 1017.49 1017.70 1017.97 1018.21 1018.40 1018.58 1018.75 1018.83 1018.91 1019.02 1019.15 1019.25 1019.34 1019.39 1019.39 1019.41 1019.40 1019.38 1019.34 1019.30 1019.29 1019.29 1019.28 1019.30 1019.35 1019.39 1019.39 1019.46 1019.46 1019.54 1019.27 1019.84
1013.99 1014.75 1015.45 1015.83 1016.08 1016.28 1016.52 1016.76 1016.94 1017.17 1017.40 1017.67 1017.87 1018.10 1018.33 1018.51 1018.68 1018.85 1018.99 1019.09 1019.24 1019.35 1019.44 1019.47 1019.50 1019.53 1019.51 1019.46 1019.38 1019.41 1019.44 1019.36 1019.29 1019.27 1019.28 1019.32 1019.42 1019.50 1019.52 1019.57 1019.60 1019.38 1019.81
1013.92 1014.66 1015.35 1015.85 1016.13 1016.40 1016.66 1016.96 1017.15 1017.36 1017.61 1017.87 1018.11 1018.26 1018.46 1018.62 1018.76 1018.93 1019.08 1019.18 1019.30 1019.38 1019.43 1019.46 1019.53 1019.57 1019.52 1019.51 1019.52 1019.49 1019.47 1019.43 1019.41 1019.40 1019.49 1019.12 1018.87 1019.54 1019.68 1019.68 1019.89 1019.99 1020.02
1013.84 1014.54 1015.17 1015.91 1016.22 1016.56 1016.85 1017.12 1017.34 1017.58 1017.81 1018.03 1018.25 1018.42 1018.61 1018.76 1018.88 1018.97 1019.07 1019.18 1019.27 1019.32 1019.41 1019.44 1019.50 1019.52 1019.55 1019.54 1019.58 1019.59 1019.56 1019.49 1019.51 1019.55 1019.32 1019.26 1019.20 1019.59 1019.78 1019.71 1019.87 1020.11 1020.23
1014.09 1014.61 1015.21 1015.96 1016.33 1016.67 1017.01 1017.26 1017.48 1017.72 1017.94 1018.16 1018.40 1018.62 1018.81 1018.88 1019.00 1019.10 1019.14 1019.23 1019.29 1019.36 1019.40 1019.46 1019.50 1019.48 1019.46 1019.47 1019.52 1019.62 1019.67 1019.65 1019.62 1019.59 1019.46 1019.42 1019.43 1019.51 1019.68 1019.66 1019.87 1019.97 1020.08
1014.37 1014.84 1015.65 1016.21 1016.50 1016.79 1017.13 1017.41 1017.57 1017.78 1018.00 1018.19 1018.42 1018.67 1018.83 1018.91 1019.03 1019.16 1019.24 1019.31 1019.37 1019.43 1019.40 1019.40 1019.34 1019.28 1019.30 1019.35 1019.41 1019.49 1019.57 1019.58 1019.60 1019.22 1019.38 1019.39 1019.47 1019.45 1019.63 1019.66 1019.80 1019.78 1019.98
1014.55 1014.99 1015.53 1016.24 1016.58 1016.89 1017.18 1017.39 1017.61 1017.81 1018.02 1018.22 1018.38 1018.52 1018.73 1018.89 1019.01 1019.15 1019.20 1019.25 1019.33 1019.38 1019.34 1019.28 1019.22 1019.16 1019.14 1019.17 1019.22 1019.30 1019.34 1019.37 1019.00 1018.98 1019.10 1019.20 1019.36 1019.66 1019.68 1019.66 1019.80 1019.89 1020.08
1014.39 1014.85 1015.39 1016.26 1016.61 1016.87 1017.13 1017.33 1017.54 1017.80 1018.05 1018.28 1018.44 1018.57 1018.75 1018.91 1019.03 1019.10 1019.13 1019.17 1019.16 1019.17 1019.07 1019.01 1018.95 1018.94 1018.92 1018.95 1019.01 1019.08 1019.12 1019.18 1018.89 1018.85 1018.91 1018.90 1019.24 1019.64 1019.65 1019.56 1019.63 1019.80 1019.88
1014.41 1014.85 1015.29 1015.80 1016.40 1016.81 1017.05 1017.26 1017.54 1017.78 1017.99 1018.20 1018.37 1018.59 1018.78 1018.90 1019.01 1019.05 1018.99 1019.00 1018.91 1018.82 1018.70 1018.69 1018.67 1018.68 1018.72 1018.67 1018.69 1018.82 1018.91 1018.92 1018.74 1018.74 1018.84 1018.89 1019.15 1019.40 1019.52 1019.50 1019.61 1019.54 1019.80
1014.67 1014.78 1015.17 1015.67 1016.04 1016.37 1016.66 1017.14 1017.38 1017.63 1017.90 1018.11 1018.28 1018.47 1018.61 1018.72 1018.76 1018.76 1018.77 1018.59 1018.46 1018.25 1018.22 1018.07 1018.26 1018.22 1018.32 1018.39 1018.39 1018.58 1018.66 1018.76 1018.47 1018.47 1018.62 1018.62 1018.97 1019.06 1019.14 1019.09 1019.27 1019.39 1019.60
1014.78 1014.97 1015.23 1015.59 1016.09 1016.42 1016.58 1016.82 1017.22 1017.49 1017.73 1017.92 1018.01 1018.14 1018.27 1018.09 1018.14 1018.27 1018.29 1018.35 1018.08 1017.91 1017.77 1017.66 1017.74 1017.74 1017.93 1017.96 1018.16 1018.31 1018.43 1017.96 1018.10 1018.08 1018.05 1018.30 1018.53 1018.62 1018.55 1018.62 1018.74 1018.90 1019.24
1014.11 1014.54 1014.98 1015.33 1015.66 1016.19 1016.37 1016.69 1016.92 1017.18 1017.27 1017.48 1017.65 1017.84 1017.82 1017.84 1017.98 1018.01 1018.03 1017.99 1017.84 1017.65 1017.48 1017.38 1017.28 1017.36 1017.45 1017.21 1017.24 1017.74 1017.48 1017.61 1017.45 1017.57 1017.62 1018.03 1018.35 1018.28 1018.25 1018.20 1018.26 1018.41 1018.68
1013.66 1014.23 1014.62 1015.10 1015.49 1015.77 1016.01 1016.40 1016.70 1016.92 1017.08 1017.33 1017.64 1017.73 1017.66 1017.65 1017.69 1017.65 1017.57 1017.46 1017.45 1017.38 1017.03 1016.80 1016.76 1016.82 1016.67 1016.83 1016.86 1016.99 1017.06 1017.30 1017.11 1017.02 1017.05 1017.57 1017.74 1017.89 1017.82 1017.82 1017.94 1018.06 1018.33
1013.41 1013.91 1014.36 1014.70 1015.24 1015.54 1015.83 1016.11 1016.22 1016.51 1016.74 1016.94 1017.12 1017.45 1017.54 1017.42 1017.34 1017.36 1017.20 1017.21 1017.24 1016.95 1016.75 1016.46 1016.18 1016.31 1016.51 1016.62 1016.77 1016.70 1016.71 1016.74 1016.68 1016.63 1016.52 1016.99 1017.14 1017.17 1017.30 1017.35 1017.43 1017.70 1017.94
1013.11 1013.47 1013.98 1014.64 1015.11 1015.34 1015.78 1015.80 1016.01 1016.16 1016.37 1016.46 1016.77 1016.94 1017.11 1017.05 1016.99 1017.03 1016.93 1016.83 1016.73 1016.64 1016.27 1016.30 1016.23 1015.99 1016.11 1016.28 1016.35 1016.35 1016.28 1016.26 1016.15 1016.21 1016.08 1016.46 1016.65 1016.74 1016.79 1016.92 1017.06 1017.38 1017.67
1012.67 1013.04 1013.65 1014.19 1014.63 1015.03 1015.45 1015.64 1015.73 1015.87 1015.97 1016.16 1016.21 1016.28 1016.68 1016.66 1016.62 1016.55 1016.64 1016.46 1016.29 1016.27 1016.03 1015.90 1015.77 1015.69 1015.79 1015.94 1015.87 1015.92 1015.96 1015.85 1015.78 1015.88 1015.76 1015.75 1016.29 1016.34 1016.37 1016.57 1016.73 1017.06 1017.44
1012.15 1012.70 1013.11 1013.71 1014.08 1014.73 1015.00 1015.22 1015.49 1015.57 1015.67 1015.80 1015.80 1016.00 1016.23 1016.33 1016.30 1016.36 1016.08 1016.02 1015.81 1016.03 1016.02 1015.67 1015.58 1015.53 1015.57 1015.53 1015.74 1015.59 1015.70 1015.71 1015.61 1015.61 1015.48 1015.47 1015.45 1015.90 1015.91 1016.20 1016.63 1016.71 1017.09
1011.94 1012.41 1012.88 1013.31 1013.67 1014.19 1014.46 1014.80 1015.07 1015.28 1015.44 1015.46 1015.51 1015.62 1015.79 1015.89 1015.98 1015.92 1015.73 1015.69 1015.34 1015.59 1015.68 1015.51 1015.33 1015.36 1015.35 1015.29 1015.45 1015.52 1015.55 1015.32 1015.29 1015.38 1015.26 1015.30 1015.30 1015.11 1015.83 1016.05 1016.39 1016.52 1016.69
1011.44 1012.00 1012.56 1013.02 1013.21 1013.64 1014.16 1014.48 1014.84 1015.03 1015.23 1015.15 1015.23 1015.20 1015.24 1015.41 1015.46 1015.57 1015.17 1015.04 1015.26 1015.11 1015.24 1015.29 1015.28 1015.54 1015.21 1015.20 1015.24 1015.30 1015.28 1015.13 1015.12 1014.89 1015.05 1015.05 1015.17 1015.22 1015.12 1015.69 1016.13 1016.44 1016.40
1010.86 1011.52 1012.01 1012.47 1012.89 1013.45 1013.98 1014.46 1014.64 1014.81 1014.74 1014.79 1014.75 1014.64 1014.76 1014.88 1015.09 1015.14 1014.80 1014.72 1014.90 1014.82 1014.99 1015.17 1015.29 1015.25 1015.21 1015.03 1014.87 1014.86 1014.94 1014.68 1014.66 1014.74 1014.71 1014.65 1014.74 1014.95 1014.92 1015.21 1015.45 1015.75 1016.19
1010.18 1010.72 1011.30 1011.83 1012.26 1012.96 1013.36 1013.78 1014.05 1013.90 1014.20 1014.18 1014.10 1014.24 1014.42 1014.50 1014.70 1014.78 1014.42 1014.40 1014.49 1014.64 1014.77 1015.02 1015.00 1015.09 1014.91 1015.09 1014.93 1014.29 1014.15 1014.11 1014.13 1014.35 1014.33 1014.30 1014.46 1014.77 1014.65 1014.92 1014.91 1015.11 1015.44
1009.25 1009.77 1010.38 1010.91 1011.64 1012.11 1012.50 1012.68 1012.99 1013.29 1013.42 1013.52 1013.51 1013.65 1013.91 1014.06 1014.27 1014.40 1014.37 1014.13 1014.25 1014.41 1014.66 1014.78 1014.97 1014.86 1014.81 1014.96 1014.53 1014.43 1013.67 1013.67 1013.83 1013.92 1014.12 1014.25 1014.29 1014.28 1014.52 1014.63 1014.63 1014.93 1015.04
1008.19 1008.69 1009.26 1009.88 1010.69 1011.36 1011.73 1012.43 1012.85 1013.10 1013.17 1013.07 1013.01 1013.11 1013.09 1013.38 1013.58 1013.75 1013.81 1013.78 1013.86 1014.13 1014.02 1014.37 1014.59 1014.72 1014.36 1014.60 1014.75 1014.40 1013.95 1013.39 1013.62 1013.68 1013.80 1013.93 1014.10 1014.05 1014.08 1014.22 1014.37 1014.47 1014.71
1006.41 1007.41 1008.22 1009.08 1009.79 1010.47 1011.15 1011.58 1011.77 1011.72 1011.77 1011.70 1011.85 1012.05 1012.36 1012.73 1013.01 1013.20 1013.26 1013.33 1013.53 1013.59 1013.69 1013.77 1014.07 1014.37 1014.58 1014.08 1014.42 1014.50 1014.52 1014.48 1013.90 1013.28 1013.49 1013.74 1014.06 1014.14 1014.01 1013.95 1013.85 1014.20 1014.29
1005.52 1006.17 1007.00 1008.04 1008.98 1009.60 1010.11 1010.38 1010.88 1011.12 1010.96 1011.13 1011.42 1011.74 1012.05 1012.25 1012.54 1012.65 1012.75 1012.79 1012.96 1013.15 1013.30 1013.56 1013.85 1014.05 1014.05 1013.96 1013.78 1014.12 1014.41 1014.27 1014.35 1014.21 1013.17 1012.99 1013.56 1013.47 1013.58 1013.73 1013.62 1013.57 1013.73
1004.56 1005.40 1006.43 1007.28 1007.79 1008.66 1009.34 1009.88 1010.12 1010.24 1010.42 1010.76 1010.98 1011.07 1011.04 1011.38 1011.67 1011.94 1012.06 1012.39 1012.62 1012.84 1013.01 1013.08 1013.36 1013.57 1013.65 1013.74 1013.62 1013.63 1013.48 1013.33 1013.39 1013.64 1013.44 1012.92 1012.79 1012.82 1013.09 1013.12 1013.24 1013.30 1013.36
Wind_Speed
14 15 15 15 15 15 14 14 15 14 15 14 14 14 13 11 11 10 9 8 8 7 7 6 5 5 5 4 4 4 5 5 5 6 6 7 6 7 9 9 11 9 9
19 17 16 15 16 16 15 13 14 14 14 14 13 13 12 11 10 9 8 7 6 6 5 5 5 5 4 4 4 4 4 4 4 5 5 7 6 8 8 9 7 11 11
21 17 17 17 16 16 15 14 13 13 13 13 12 12 11 10 10 9 7 6 6 5 5 4 4 5 4 4 4 4 4 4 3 6 5 2 5 5 4 7 7 9 10
20 17 16 16 15 16 15 14 13 13 12 11 11 10 9 9 8 8 7 6 5 4 4 4 3 3 3 3 3 3 2 3 5 5 3 3 2 5 3 6 9 9 9
18 16 16 16 16 16 14 13 12 12 12 11 11 10 9 8 7 7 7 7 6 5 4 4 3 3 3 3 3 2 1 1 3 5 3 3 3 2 4 6 9 10 10
16 15 16 16 16 15 13 12 11 11 10 11 11 10 9 8 8 7 6 5 5 5 5 5 5 6 5 5 5 4 4 3 4 3 3 4 7 4 4 5 7 8 10
17 15 16 15 15 14 13 12 11 10 10 10 10 10 10 9 7 6 6 6 5 6 7 8 8 8 8 7 7 7 6 6 7 5 5 5 2 6 7 7 9 11 11
18 15 15 15 14 14 13 12 10 10 9 9 8 8 8 6 6 6 6 7 7 8 9 10 10 10 9 9 9 8 8 9 8 6 7 6 3 7 8 8 10 9 11
17 14 13 14 14 13 12 11 10 9 9 9 8 6 5 6 6 7 8 8 8 9 11 12 12 12 11 11 10 10 10 10 9 5 7 6 8 10 11 11 11 9 9
13 13 12 11 12 11 11 11 10 10 9 8 7 7 7 7 9 9 7 10 10 10 12 14 12 12 11 11 12 11 10 10 10 7 7 6 7 12 15 12 13 12 14
12 13 12 12 10 9 8 9 10 10 10 9 9 9 8 6 6 7 5 9 11 12 11 10 10 9 9 11 11 11 9 6 7 6 5 8 12 13 12 11 11 13 13
17 15 13 12 12 10 8 8 8 7 6 6 6 6 6 6 6 7 8 10 11 13 12 11 9 8 8 5 5 8 6 7 6 6 6 6 12 13 12 10 9 12 13
17 13 15 13 12 12 9 7 5 5 5 5 8 7 6 5 5 5 4 4 4 7 6 6 7 4 5 4 5 5 5 6 5 5 6 9 11 13 12 9 8 12 14
17 16 15 14 12 12 8 7 7 6 6 6 6 8 6 5 6 5 4 5 5 4 6 6 4 3 5 5 6 7 7 6 5 5 6 9 11 11 12 10 8 10 13
17 16 16 14 13 11 11 8 8 8 7 7 7 8 7 7 6 5 5 5 4 5 5 5 5 5 4 5 6 7 7 8 8 5 5 9 10 9 10 10 9 10 11
16 17 16 16 15 13 12 11 9 8 8 8 7 8 9 8 6 6 6 6 6 5 5 5 5 5 4 4 6 6 7 6 7 8 6 5 9 11 11 10 11 11 10
16 15 17 16 15 15 14 12 10 9 8 8 8 9 9 9 8 8 7 6 6 4 7 5 5 4 5 4 5 5 5 5 5 6 5 5 4 8 9 9 9 10 10
15 16 15 13 15 15 14 11 9 9 8 8 8 7 9 10 10 9 8 7 7 4 4 6 5 5 5 4 4 4 5 6 6 7 6 5 4 4 7 8 8 9 10
17 16 16 15 16 15 13 10 10 10 9 8 8 8 9 10 10 9 8 7 7 5 5 5 5 4 5 5 5 4 4 5 5 5 6 6 7 6 5 8 8 9 11
17 17 16 14 15 13 9 8 8 8 9 9 9 10 11 9 10 9 8 8 6 6 5 5 6 4 6 5 5 5 5 6 6 5 6 6 6 8 8 7 7 8 10
18 18 17 16 15 12 10 9 9 11 10 10 10 13 11 10 9 9 8 8 6 7 6 6 5 5 5 5 5 5 6 7 7 6 5 6 6 6 7 7 6 5 6
20 19 18 18 16 15 11 10 8 8 10 10 9 11 11 11 10 9 10 8 7 6 7 6 6 4 4 4 4 3 4 3 4 5 6 6 8 7 7 8 7 8 7
22 20 18 18 17 16 15 10 8 7 7 7 10 10 12 13 13 12 12 10 7 6 7 8 7 7 6 4 7 4 4 3 3 2 4 5 8 7 8 8 8 8 9
24 21 19 18 18 16 16 13 14 13 13 12 11 10 10 12 13 14 13 11 9 7 9 8 6 7 7 7 4 6 5 3 4 3 3 4 6 8 9 7 9 8 8
20 21 19 17 17 16 17 17 14 15 12 11 10 11 10 9 12 13 13 12 9 7 9 9 8 8 7 8 6 3 4 5 5 5 7 2 4 5 6 8 8 7 9
19 18 17 18 17 17 17 19 18 17 14 11 11 10 10 9 9 12 12 10 8 8 10 10 10 9 9 8 7 7 6 5 5 6 7 7 6 2 4 5 8 7 7
Wind_Direction
159 157 152 147 139 128 121 114 114 121 128 134 138 140 141 140 138 135 133 126 118 109 100 95 92 94 99 106 112 111 106 106 110 119 124 123 126 118 135 134 140 143 145
150 155 151 150 146 138 130 127 124 121 126 130 133 137 139 139 138 136 136 130 120 119 117 118 120 109 99 101 112 114 119 130 134 131 130 136 131 139 122 146 165 126 155
148 153 156 156 152 144 139 137 134 135 137 135 134 138 140 143 144 143 141 138 134 129 124 125 117 119 113 106 115 122 135 153 130 106 99 143 140 151 145 153 160 159 160
147 154 157 155 153 149 146 145 142 144 146 145 144 146 148 153 154 151 151 150 148 150 142 136 136 136 127 125 121 144 172 187 128 119 176 158 208 143 197 181 168 173 171
150 153 151 157 152 151 150 149 148 150 153 153 156 159 161 167 166 167 169 167 169 175 183 185 190 199 195 180 183 189 208 70 145 181 164 174 210 145 212 210 178 176 184
149 153 147 155 155 150 151 154 157 153 160 162 162 165 173 177 181 180 176 177 195 210 224 232 241 242 240 230 223 221 227 226 242 216 234 238 257 200 228 192 192 194 189
150 155 152 156 155 154 156 160 163 160 161 161 166 168 174 180 183 188 199 207 218 240 252 255 254 254 250 243 239 232 231 235 246 221 235 251 236 204 226 221 207 197 187
152 158 152 154 159 161 165 166 166 162 167 167 169 178 176 186 200 214 231 240 244 247 253 255 256 256 253 247 241 234 230 238 234 239 247 238 208 229 234 239 231 210 203
156 159 165 163 166 169 172 171 173 171 177 179 185 188 201 221 232 241 251 262 265 261 261 258 254 250 249 246 243 240 235 232 255 246 248 249 186 227 237 236 238 222 227
165 166 167 169 171 178 173 175 179 184 187 191 199 207 220 238 245 244 258 240 266 266 269 265 258 248 249 249 246 242 241 242 243 237 240 240 235 227 238 244 227 215 209
173 175 177 176 176 178 187 182 184 192 199 207 211 218 226 241 244 254 266 272 273 281 275 276 270 255 241 240 244 240 244 244 241 244 238 218 231 238 245 235 228 217 215
181 183 184 188 184 185 191 191 196 205 214 217 223 229 238 246 253 268 267 265 274 282 294 288 277 258 245 247 235 222 239 232 234 242 246 216 237 245 242 244 226 206 205
186 186 190 190 191 192 197 192 200 205 212 217 228 234 241 256 252 255 265 276 289 280 279 275 272 248 236 249 238 243 238 243 250 239 245 213 230 242 251 244 232 202 197
191 197 194 196 194 201 198 200 205 212 213 222 222 229 238 243 247 256 264 276 278 294 292 277 263 258 233 228 237 236 231 233 241 246 240 221 238 241 253 253 235 210 202
195 197 201 197 201 204 207 206 213 216 219 227 227 226 232 246 255 264 272 272 273 290 283 285 288 252 232 225 226 243 241 246 250 249 248 220 239 236 247 247 205 202 194
200 202 199 203 203 203 210 213 216 221 225 228 231 228 223 236 245 260 263 271 278 276 297 285 278 272 270 236 235 240 248 256 250 254 255 254 234 243 234 227 188 190 199
203 204 205 204 203 209 213 214 218 223 224 235 235 237 231 233 238 250 257 260 265 269 274 280 266 254 264 237 242 242 235 264 263 259 251 253 218 210 196 189 191 187 195
210 206 208 205 206 210 214 215 223 227 231 235 238 241 239 240 243 248 256 256 269 265 260 273 271 267 262 250 248 241 248 252 249 247 242 245 235 226 188 200 196 194 190
208 210 211 210 211 210 214 218 225 228 232 238 242 244 244 246 251 248 253 259 259 267 262 274 275 281 281 258 247 252 253 251 244 233 235 229 221 230 209 176 204 215 197
211 213 213 212 214 208 209 216 228 237 236 237 242 246 247 245 243 241 251 260 252 258 242 248 258 258 269 281 265 248 242 244 244 246 234 233 220 224 223 230 194 209 209
213 213 214 210 207 197 198 202 220 227 230 234 235 244 252 251 244 236 248 259 245 249 244 230 252 250 257 250 270 251 247 244 246 237 222 228 220 211 215 219 215 210 196
214 212 208 212 203 201 202 203 211 213 229 239 240 243 238 239 239 243 253 257 254 251 231 229 228 255 253 224 263 288 278 209 227 230 230 226 220 206 209 214 211 218 214
213 209 209 205 203 203 205 203 209 221 233 224 229 233 231 228 234 238 247 255 252 244 238 223 215 222 266 217 227 273 258 282 323 177 224 224 228 221 221 219 218 213 212
214 209 207 204 202 202 196 202 205 214 220 224 230 230 231 228 235 241 246 248 245 245 245 238 223 237 242 258 229 226 245 313 300 289 189 206 225 240 232 230 225 215 214
208 210 205 198 202 202 197 205 205 217 225 231 229 233 229 231 235 235 237 239 240 242 247 243 232 225 234 258 249 208 237 242 238 258 289 224 212 227 232 227 227 224 215
213 211 205 199 201 199 199 204 208 217 221 225 223 225 225 225 225 222 234 239 250 255 246 239 236 232 237 246 258 245 235 230 223 224 246 281 294 264 235 225 224 230 224